|
NORAD ID: 14522 Int'l Code: 1983-115B
Perigee: 1,486.2 km
Apogee: 1,528.0 km
Inclination: 73.6 °
Period: 116.0 minutes
Semi major axis: 7878 km
Launch date: November 24, 1983
Source: Commonwealth of Independent States (former USSR) (CIS)
Note: This is a ROCKET BODY
Two Line Element Set (TLE):
1 14522U 83115B 13141.38532193 .00000029 00000-0 34299-3 0 2888
2 14522 073.6173 215.7507 0026531 321.8298 107.8524 12.41564970336817
Source:
NASA's NSSDC Master Catalog entry for SL-14 R/B
|